| time (UTC) | temp F | wind direction | speed MPH | gust MPH | rain 1hr in | rain 24hr in | rain mn in | humidity % | barometer mb |
| 20260505054158 | 54 | 77 | 2.0 | 5.0 | 0.00 | 0.00 | 0.00 | 72 | 1031.6 |
| 20260505053646 | 55 | 66 | 3.0 | 5.0 | 0.00 | 0.00 | 0.00 | 72 | 1031.6 |
| 20260505053141 | 55 | 54 | 3.0 | 5.0 | 0.00 | 0.00 | 0.00 | 72 | 1031.6 |
| 20260505052650 | 55 | 56 | 3.0 | 5.0 | 0.00 | 0.00 | 0.00 | 71 | 1031.6 |
| 20260505052153 | 55 | 66 | 2.0 | 5.0 | 0.00 | 0.00 | 0.00 | 71 | 1031.6 |
| 20260505051701 | 55 | 47 | 1.0 | 5.0 | 0.00 | 0.00 | 0.00 | 70 | 1031.7 |
| 20260505051147 | 56 | 44 | 1.0 | 5.0 | 0.00 | 0.00 | 0.00 | 70 | 1031.7 |
| 20260505050646 | 57 | 319 | 2.0 | 5.0 | 0.00 | 0.00 | 0.00 | 69 | 1031.7 |
| 20260505050152 | 57 | 66 | 2.0 | 5.0 | 0.00 | 0.00 | 0.00 | 68 | 1031.7 |
| 20260505041508 | 61 | 291 | 1.0 | 6.0 | 0.00 | 0.00 | 0.00 | 62 | 1031.9 |
| 20260505040957 | 61 | 0 | 2.0 | 6.0 | 0.00 | 0.00 | 0.00 | 62 | 1031.9 |
| 20260505040443 | 61 | 256 | 2.0 | 4.0 | 0.00 | 0.00 | 0.00 | 61 | 1031.8 |
| 20260505035946 | 61 | 277 | 2.0 | 5.0 | 0.00 | 0.00 | 0.00 | 60 | 1031.8 |
| 20260505034819 | 62 | 280 | 2.0 | 5.0 | 0.00 | 0.00 | 0.00 | 60 | 1031.8 |
| 20260505034320 | 61 | 327 | 2.0 | 5.0 | 0.00 | 0.00 | 0.00 | 59 | 1031.8 |
| 20260505033819 | 61 | 274 | 2.0 | 5.0 | 0.00 | 0.00 | 0.00 | 60 | 1031.8 |
| 20260505032659 | 62 | 274 | 2.0 | 5.0 | 0.00 | 0.00 | 0.00 | 59 | 1031.8 |
| 20260505031521 | 61 | 317 | 2.0 | 6.0 | 0.00 | 0.00 | 0.00 | 58 | 1031.9 |
| 20260505031027 | 62 | 40 | 2.0 | 6.0 | 0.00 | 0.00 | 0.00 | 58 | 1031.8 |
| 20260505030518 | 61 | 277 | 2.0 | 6.0 | 0.00 | 0.00 | 0.00 | 58 | 1031.8 |
| 20260505030007 | 61 | 308 | 3.0 | 7.0 | 0.00 | 0.00 | 0.00 | 61 | 1031.9 |
| 20260505024826 | 62 | 357 | 2.0 | 8.0 | 0.00 | 0.00 | 0.00 | 59 | 1031.9 |
| 20260505023647 | 61 | 296 | 3.0 | 8.0 | 0.00 | 0.00 | 0.00 | 59 | 1031.9 |
| 20260505022518 | 61 | 333 | 3.0 | 8.0 | 0.00 | 0.00 | 0.00 | 59 | 1032.0 |
| 20260505022024 | 62 | 292 | 3.0 | 8.0 | 0.00 | 0.00 | 0.00 | 61 | 1032.0 |
| 20260505021523 | 61 | 291 | 3.0 | 8.0 | 0.00 | 0.00 | 0.00 | 61 | 1032.0 |
| 20260505021007 | 61 | 305 | 3.0 | 8.0 | 0.00 | 0.00 | 0.00 | 60 | 1032.1 |
| 20260505020515 | 61 | 357 | 3.0 | 8.0 | 0.00 | 0.00 | 0.00 | 60 | 1032.3 |
| 20260505020014 | 61 | 246 | 3.0 | 8.0 | 0.00 | 0.00 | 0.00 | 60 | 1032.2 |
| 20260505015512 | 61 | 301 | 4.0 | 8.0 | 0.00 | 0.00 | 0.00 | 60 | 1032.3 |
| 20260505013737 | 61 | 345 | 3.0 | 7.0 | 0.00 | 0.00 | 0.00 | 60 | 1032.4 |
| 20260505013243 | 61 | 283 | 3.0 | 7.0 | 0.00 | 0.00 | 0.00 | 60 | 1032.4 |
| 20260505012738 | 61 | 351 | 3.0 | 7.0 | 0.00 | 0.00 | 0.00 | 60 | 1032.5 |
| 20260505012220 | 61 | 323 | 2.0 | 8.0 | 0.00 | 0.00 | 0.00 | 62 | 1032.6 |
| 20260505011711 | 61 | 291 | 2.0 | 8.0 | 0.00 | 0.00 | 0.00 | 60 | 1032.6 |
| 20260505011207 | 61 | 323 | 3.0 | 8.0 | 0.00 | 0.00 | 0.00 | 62 | 1032.7 |
| 20260505005355 | 59 | 33 | 3.0 | 8.0 | 0.00 | 0.00 | 0.00 | 63 | 1032.9 |
| 20260505004855 | 59 | 346 | 2.0 | 8.0 | 0.00 | 0.00 | 0.00 | 64 | 1033.0 |
| 20260505004340 | 59 | 14 | 3.0 | 8.0 | 0.00 | 0.00 | 0.00 | 65 | 1033.0 |
| 20260505003828 | 59 | 353 | 3.0 | 8.0 | 0.00 | 0.00 | 0.00 | 65 | 1033.1 |
| 20260505003324 | 59 | 0 | 2.0 | 8.0 | 0.00 | 0.00 | 0.00 | 65 | 1033.2 |
| 20260505002832 | 59 | 345 | 1.0 | 7.0 | 0.00 | 0.00 | 0.00 | 65 | 1033.4 |
| 20260505001046 | 58 | 16 | 3.0 | 7.0 | 0.00 | 0.00 | 0.00 | 66 | 1033.7 |
| 20260505000526 | 58 | 0 | 3.0 | 7.0 | 0.00 | 0.00 | 0.00 | 68 | 1033.8 |
| 20260505000036 | 58 | 5 | 2.0 | 6.0 | 0.00 | 0.00 | 0.00 | 67 | 1033.9 |
| 20260504235540 | 58 | 10 | 2.0 | 6.0 | 0.00 | 0.00 | 0.00 | 67 | 1034.0 |
| 20260504235043 | 58 | 0 | 3.0 | 6.0 | 0.00 | 0.00 | 0.00 | 67 | 1034.1 |
| 20260504234544 | 58 | 23 | 2.0 | 7.0 | 0.00 | 0.00 | 0.00 | 68 | 1034.1 |
| 20260504234047 | 58 | 5 | 3.0 | 7.0 | 0.00 | 0.00 | 0.00 | 68 | 1034.2 |
| 20260504233534 | 57 | 338 | 3.0 | 7.0 | 0.00 | 0.00 | 0.00 | 68 | 1034.3 |
| 20260504232412 | 58 | 36 | 3.0 | 6.0 | 0.00 | 0.00 | 0.00 | 68 | 1034.4 |
| 20260504231911 | 58 | 355 | 2.0 | 5.0 | 0.00 | 0.00 | 0.00 | 67 | 1034.4 |
| 20260504231406 | 58 | 23 | 1.0 | 6.0 | 0.00 | 0.00 | 0.00 | 68 | 1034.5 |
| 20260504230902 | 58 | 358 | 1.0 | 6.0 | 0.00 | 0.00 | 0.00 | 67 | 1034.5 |
| 20260504230402 | 58 | 0 | 2.0 | 6.0 | 0.00 | 0.00 | 0.00 | 67 | 1034.4 |
| 20260504225842 | 58 | 351 | 2.0 | 6.0 | 0.00 | 0.00 | 0.00 | 67 | 1034.4 |
| 20260504225341 | 58 | 323 | 2.0 | 4.0 | 0.00 | 0.00 | 0.00 | 68 | 1034.4 |
| 20260504224207 | 58 | 330 | 1.0 | 4.0 | 0.00 | 0.00 | 0.00 | 69 | 1034.4 |
| 20260504223046 | 57 | 353 | 2.0 | 6.0 | 0.00 | 0.00 | 0.00 | 68 | 1034.4 |
| 20260504222548 | 57 | 33 | 3.0 | 6.0 | 0.00 | 0.00 | 0.00 | 68 | 1034.4 |
| 20260504222055 | 57 | 12 | 3.0 | 6.0 | 0.00 | 0.00 | 0.00 | 67 | 1034.4 |
| 20260504221555 | 57 | 47 | 4.0 | 6.0 | 0.00 | 0.00 | 0.00 | 67 | 1034.4 |
| 20260504221055 | 57 | 14 | 3.0 | 6.0 | 0.00 | 0.00 | 0.00 | 67 | 1034.4 |
| 20260504220534 | 57 | 14 | 3.0 | 6.0 | 0.00 | 0.00 | 0.00 | 69 | 1034.4 |
| 20260504215409 | 57 | 9 | 1.0 | 4.0 | 0.00 | 0.00 | 0.00 | 71 | 1034.4 |
| 20260504214903 | 56 | 9 | 2.0 | 4.0 | 0.00 | 0.00 | 0.00 | 71 | 1034.4 |
| 20260504214346 | 56 | 42 | 2.0 | 5.0 | 0.00 | 0.00 | 0.00 | 71 | 1034.4 |
| 20260504213233 | 56 | 23 | 2.0 | 6.0 | 0.00 | 0.00 | 0.00 | 72 | 1034.5 |
| 20260504212715 | 56 | 51 | 2.0 | 6.0 | 0.00 | 0.00 | 0.00 | 73 | 1034.5 |
| 20260504212213 | 55 | 79 | 3.0 | 6.0 | 0.00 | 0.00 | 0.00 | 73 | 1034.5 |
| 20260504211112 | 55 | 52 | 2.0 | 7.0 | 0.00 | 0.00 | 0.00 | 74 | 1034.5 |
| 20260504210607 | 55 | 85 | 2.0 | 7.0 | 0.00 | 0.00 | 0.00 | 74 | 1034.5 |
| 20260504210108 | 55 | 47 | 3.0 | 7.0 | 0.00 | 0.00 | 0.00 | 74 | 1034.5 |
| 20260504205616 | 55 | 36 | 3.0 | 7.0 | 0.00 | 0.00 | 0.00 | 74 | 1034.6 |
| 20260504205059 | 55 | 37 | 3.0 | 6.0 | 0.00 | 0.00 | 0.00 | 74 | 1034.6 |
| 20260504204544 | 55 | 357 | 3.0 | 6.0 | 0.00 | 0.00 | 0.00 | 74 | 1034.6 |
| 20260504204041 | 55 | 58 | 3.0 | 5.0 | 0.00 | 0.00 | 0.00 | 74 | 1034.6 |
| 20260504203521 | 54 | 52 | 3.0 | 5.0 | 0.00 | 0.00 | 0.00 | 75 | 1034.6 |
| 20260504203007 | 54 | 56 | 3.0 | 5.0 | 0.00 | 0.00 | 0.00 | 75 | 1034.6 |
| 20260504202509 | 54 | 53 | 3.0 | 5.0 | 0.00 | 0.00 | 0.00 | 75 | 1034.7 |
| 20260504202015 | 54 | 52 | 2.0 | 5.0 | 0.00 | 0.00 | 0.00 | 76 | 1034.7 |
| 20260504201501 | 54 | 40 | 1.0 | 4.0 | 0.00 | 0.00 | 0.00 | 76 | 1034.7 |
| 20260504200942 | 54 | 9 | 1.0 | 4.0 | 0.00 | 0.00 | 0.00 | 76 | 1034.7 |
| 20260504200424 | 54 | 18 | 2.0 | 4.0 | 0.00 | 0.00 | 0.00 | 76 | 1034.6 |
| 20260504195913 | 54 | 23 | 2.0 | 4.0 | 0.00 | 0.00 | 0.00 | 76 | 1034.6 |
| 20260504195416 | 54 | 18 | 2.0 | 5.0 | 0.00 | 0.00 | 0.00 | 76 | 1034.5 |
| 20260504194240 | 54 | 28 | 2.0 | 5.0 | 0.00 | 0.00 | 0.00 | 76 | 1034.5 |
| 20260504193741 | 54 | 35 | 3.0 | 5.0 | 0.00 | 0.00 | 0.00 | 76 | 1034.5 |
| 20260504193224 | 54 | 33 | 2.0 | 5.0 | 0.00 | 0.00 | 0.00 | 76 | 1034.5 |
| 20260504192704 | 54 | 23 | 2.0 | 4.0 | 0.00 | 0.00 | 0.00 | 76 | 1034.5 |
| 20260504191531 | 54 | 26 | 2.0 | 4.0 | 0.00 | 0.00 | 0.00 | 77 | 1034.4 |
| 20260504191015 | 54 | 14 | 2.0 | 4.0 | 0.00 | 0.00 | 0.00 | 77 | 1034.4 |
| 20260504190503 | 54 | 14 | 2.0 | 5.0 | 0.00 | 0.00 | 0.00 | 76 | 1034.3 |
| 20260504185339 | 54 | 18 | 2.0 | 5.0 | 0.00 | 0.00 | 0.00 | 77 | 1034.3 |
| 20260504184822 | 54 | 61 | 2.0 | 5.0 | 0.00 | 0.00 | 0.00 | 77 | 1034.4 |
| 20260504184315 | 54 | 17 | 2.0 | 5.0 | 0.00 | 0.00 | 0.00 | 77 | 1034.3 |
| 20260504183809 | 54 | 26 | 2.0 | 5.0 | 0.00 | 0.00 | 0.00 | 77 | 1034.4 |
| 20260504183314 | 54 | 40 | 2.0 | 4.0 | 0.00 | 0.00 | 0.00 | 77 | 1034.4 |
| 20260504182149 | 53 | 23 | 2.0 | 4.0 | 0.00 | 0.00 | 0.00 | 78 | 1034.4 |
| 20260504181651 | 53 | 35 | 1.0 | 4.0 | 0.00 | 0.00 | 0.00 | 78 | 1034.4 |
| 20260504181149 | 53 | 16 | 1.0 | 3.0 | 0.00 | 0.00 | 0.00 | 78 | 1034.4 |
| 20260504175435 | 53 | 16 | 1.0 | 3.0 | 0.00 | 0.00 | 0.00 | 78 | 1034.4 |
| 20260504174930 | 53 | 345 | 1.0 | 2.0 | 0.00 | 0.00 | 0.00 | 78 | 1034.4 |
| 20260504174411 | 53 | 28 | 1.0 | 3.0 | 0.00 | 0.00 | 0.00 | 77 | 1034.3 |
| 20260504173857 | 54 | 16 | 1.0 | 3.0 | 0.00 | 0.00 | 0.00 | 77 | 1034.4 |
| 20260504172738 | 54 | 21 | 2.0 | 5.0 | 0.00 | 0.00 | 0.00 | 77 | 1034.4 |
| 20260504172239 | 54 | 12 | 2.0 | 5.0 | 0.00 | 0.00 | 0.00 | 77 | 1034.4 |
| 20260504171055 | 54 | 44 | 1.0 | 5.0 | 0.00 | 0.00 | 0.00 | 77 | 1034.4 |
| 20260504170602 | 54 | 18 | 0.0 | 4.0 | 0.00 | 0.00 | 0.00 | 77 | 1034.4 |
| 20260504170106 | 54 | 18 | 0.0 | 4.0 | 0.00 | 0.00 | 0.00 | 77 | 1034.4 |
| 20260504160326 | 54 | 42 | 2.0 | 3.0 | 0.00 | 0.00 | 0.00 | 76 | 1034.4 |
| 20260504150209 | 54 | 53 | 1.0 | 3.0 | 0.00 | 0.00 | 0.00 | 76 | 1034.7 |
| 20260504140949 | 54 | 33 | 2.0 | 5.0 | 0.00 | 0.00 | 0.00 | 77 | 1035.0 |
| 20260504140441 | 54 | 35 | 2.0 | 4.0 | 0.00 | 0.00 | 0.00 | 77 | 1035.0 |
| 20260504130347 | 54 | 23 | 1.0 | 4.0 | 0.00 | 0.00 | 0.00 | 77 | 1035.2 |
| 20260504100136 | 55 | 28 | 1.0 | 3.0 | 0.00 | 0.00 | 0.00 | 76 | 1035.2 |
| 20260504081613 | 55 | 16 | 0.0 | 2.0 | 0.00 | 0.00 | 0.00 | 77 | 1034.7 |
| 20260504070136 | 55 | 10 | 1.0 | 3.0 | 0.00 | 0.00 | 0.00 | 75 | 1034.3 |